sat.trackr.live / text

‹ back to catalog

KUIPER-00149

NORAD 65968 · 2025-228X

PAYLOAD ACTIVE UNKNOWN

§ Identity

Operator
Country
US
Launch date
2025-10-14
Launch site
AFETR
Launch vehicle
Mass (kg)
RCS (m²)

External: N2YO · Heavens-Above · Gunter

§ Orbital elements

Epoch: 2026-09-20T05:44:36.843648Z

Period
97.30 min
Inclination
51.8995°
Eccentricity
0.0000917
Mean motion
14.79936390 rev/d
Perigee alt
628.9 km
Apogee alt
630.2 km
Semi-major
7,007.7 km
B*
2.9272e-4
RAAN
197.8200°
Arg perigee
73.7879°
Mean anomaly
286.3184°
Rev number
5,235

§ Raw data

KUIPER-001491 65968U 25228X   26263.23931532  .00002011  00000+0  29272-3 0  99982 65968  51.8995 197.8200 0000917  73.7879 286.3184 14.79936390 52356

JSON: /api/v1/satellites/65968 · /tle

For live sub-satellite position, see the globe view (requires WebGL).

§ Visibility from observer

Set your observer location to see the next 7 days of passes ≥ 10°. The values pass through the URL so the page stays shareable.

No JS? Fill the form by hand. The geolocation button needs JavaScript.